QPF
0.00 0.00 0.00 0.00 0.00 0.00 0.00 0.00 0.00 0.00 0.00 0.00 0.00 0.00 0.00 0.00 0.00 0.00 0.00 0.00 0.00 0.01 0.01 0.01 0.01 0.01 0.01 0.01 0.01 0.01 0.01 0.01 0.01 0.01 0.01 0.01 0.01 0.01 0.00 0.00 0.00 0.00 0.01
0.00 0.00 0.00 0.00 0.00 0.00 0.00 0.00 0.00 0.00 0.00 0.00 0.00 0.00 0.00 0.00 0.00 0.00 0.00 0.00 0.01 0.01 0.01 0.01 0.01 0.01 0.01 0.01 0.01 0.00 0.00 0.00 0.00 0.00 0.00 0.00 0.00 0.00 0.00 0.00 0.00 0.01 0.01
0.00 0.00 0.01 0.01 0.01 0.01 0.01 0.00 0.00 0.00 0.00 0.00 0.00 0.01 0.01 0.00 0.00 0.00 0.00 0.00 0.01 0.02 0.01 0.01 0.01 0.01 0.01 0.00 0.00 0.00 0.00 0.00 0.00 0.00 0.00 0.00 0.00 0.00 0.00 0.00 0.00 0.00 0.00
0.00 0.00 0.01 0.01 0.01 0.01 0.01 0.01 0.01 0.00 0.00 0.00 0.00 0.01 0.01 0.01 0.01 0.00 0.00 0.01 0.02 0.02 0.01 0.01 0.01 0.00 0.00 0.00 0.00 0.00 0.00 0.00 0.00 0.00 0.00 0.00 0.00 0.00 0.00 0.00 0.00 0.00 0.00
0.00 0.00 0.01 0.01 0.02 0.02 0.02 0.01 0.01 0.01 0.01 0.01 0.01 0.01 0.01 0.01 0.01 0.01 0.01 0.02 0.03 0.02 0.01 0.00 0.00 0.00 0.00 0.00 0.00 0.00 0.00 0.00 0.00 0.00 0.00 0.00 0.00 0.01 0.01 0.00 0.00 0.00 0.00
0.01 0.02 0.02 0.02 0.02 0.03 0.03 0.03 0.03 0.02 0.01 0.01 0.01 0.02 0.03 0.02 0.01 0.01 0.03 0.03 0.02 0.01 0.01 0.00 0.00 0.00 0.00 0.00 0.00 0.00 0.00 0.00 0.00 0.00 0.00 0.00 0.00 0.00 0.00 0.00 0.00 0.01 0.01
0.03 0.02 0.03 0.03 0.04 0.04 0.03 0.04 0.04 0.04 0.03 0.03 0.02 0.03 0.04 0.03 0.02 0.02 0.03 0.02 0.02 0.01 0.01 0.00 0.00 0.00 0.00 0.00 0.00 0.00 0.00 0.00 0.00 0.00 0.00 0.00 0.00 0.00 0.00 0.00 0.00 0.00 0.00
0.05 0.04 0.04 0.05 0.05 0.05 0.05 0.04 0.04 0.04 0.04 0.04 0.04 0.03 0.04 0.05 0.05 0.03 0.02 0.02 0.01 0.01 0.01 0.00 0.00 0.00 0.00 0.00 0.00 0.00 0.00 0.00 0.00 0.00 0.00 0.00 0.00 0.00 0.00 0.00 0.00 0.00 0.00
0.09 0.09 0.08 0.08 0.07 0.06 0.06 0.06 0.05 0.04 0.03 0.03 0.05 0.06 0.06 0.06 0.06 0.04 0.02 0.02 0.01 0.01 0.01 0.00 0.00 0.00 0.00 0.00 0.00 0.00 0.00 0.00 0.00 0.00 0.00 0.00 0.00 0.00 0.00 0.00 0.00 0.00 0.00
0.10 0.13 0.15 0.14 0.12 0.09 0.08 0.08 0.08 0.07 0.05 0.04 0.04 0.05 0.06 0.06 0.07 0.06 0.03 0.03 0.01 0.01 0.01 0.00 0.00 0.00 0.00 0.00 0.00 0.00 0.00 0.00 0.00 0.00 0.00 0.00 0.00 0.00 0.00 0.00 0.00 0.00 0.00
0.10 0.13 0.16 0.15 0.16 0.14 0.12 0.11 0.11 0.10 0.09 0.07 0.06 0.05 0.05 0.05 0.06 0.05 0.03 0.02 0.02 0.01 0.01 0.00 0.00 0.00 0.00 0.00 0.00 0.00 0.00 0.00 0.00 0.00 0.00 0.00 0.00 0.00 0.00 0.00 0.00 0.00 0.00
0.11 0.13 0.15 0.15 0.14 0.14 0.15 0.13 0.12 0.11 0.09 0.08 0.06 0.05 0.04 0.03 0.04 0.03 0.03 0.03 0.02 0.01 0.01 0.00 0.00 0.00 0.00 0.00 0.00 0.00 0.00 0.00 0.00 0.00 0.00 0.00 0.00 0.00 0.00 0.00 0.00 0.00 0.00
0.12 0.15 0.15 0.17 0.17 0.17 0.16 0.14 0.12 0.12 0.10 0.09 0.06 0.06 0.05 0.04 0.04 0.03 0.02 0.03 0.03 0.02 0.01 0.00 0.00 0.00 0.00 0.00 0.00 0.00 0.00 0.00 0.00 0.00 0.00 0.00 0.00 0.00 0.00 0.00 0.00 0.00 0.00
0.11 0.14 0.14 0.15 0.19 0.21 0.18 0.16 0.15 0.15 0.12 0.10 0.09 0.08 0.06 0.04 0.03 0.02 0.02 0.01 0.01 0.01 0.00 0.00 0.00 0.00 0.00 0.00 0.00 0.00 0.00 0.00 0.00 0.00 0.00 0.00 0.00 0.00 0.00 0.00 0.00 0.00 0.00
0.06 0.12 0.13 0.13 0.14 0.18 0.18 0.16 0.15 0.16 0.15 0.13 0.12 0.11 0.08 0.06 0.05 0.03 0.02 0.02 0.01 0.01 0.00 0.00 0.00 0.00 0.00 0.00 0.00 0.00 0.00 0.00 0.00 0.00 0.00 0.00 0.00 0.00 0.00 0.00 0.00 0.00 0.00
0.04 0.08 0.11 0.13 0.12 0.14 0.15 0.15 0.14 0.14 0.15 0.16 0.14 0.12 0.10 0.08 0.06 0.05 0.04 0.02 0.01 0.01 0.00 0.00 0.00 0.00 0.00 0.00 0.00 0.00 0.00 0.00 0.00 0.00 0.00 0.00 0.00 0.00 0.00 0.00 0.00 0.00 0.00
0.02 0.03 0.05 0.10 0.12 0.13 0.15 0.15 0.15 0.15 0.14 0.16 0.16 0.14 0.12 0.09 0.07 0.06 0.04 0.03 0.02 0.01 0.00 0.00 0.00 0.00 0.00 0.00 0.00 0.00 0.00 0.00 0.00 0.00 0.00 0.00 0.00 0.00 0.00 0.00 0.00 0.00 0.00
0.02 0.02 0.02 0.05 0.06 0.08 0.11 0.15 0.16 0.17 0.16 0.15 0.16 0.17 0.16 0.14 0.10 0.07 0.05 0.04 0.03 0.01 0.01 0.00 0.00 0.00 0.00 0.00 0.00 0.00 0.00 0.00 0.00 0.00 0.00 0.00 0.00 0.00 0.00 0.00 0.00 0.00 0.00
0.02 0.02 0.02 0.04 0.05 0.06 0.07 0.11 0.15 0.17 0.18 0.18 0.17 0.15 0.15 0.14 0.13 0.10 0.07 0.05 0.04 0.03 0.01 0.01 0.00 0.00 0.00 0.00 0.00 0.00 0.00 0.00 0.00 0.00 0.00 0.00 0.00 0.00 0.00 0.00 0.00 0.00 0.00
0.03 0.02 0.02 0.03 0.04 0.07 0.08 0.08 0.11 0.14 0.16 0.18 0.19 0.15 0.13 0.12 0.10 0.10 0.09 0.06 0.04 0.02 0.02 0.01 0.00 0.00 0.00 0.00 0.00 0.00 0.00 0.00 0.00 0.00 0.00 0.00 0.00 0.00 0.00 0.00 0.00 0.00 0.00
0.06 0.04 0.03 0.04 0.03 0.05 0.08 0.08 0.07 0.09 0.13 0.15 0.16 0.15 0.14 0.13 0.11 0.09 0.07 0.06 0.04 0.02 0.02 0.01 0.01 0.00 0.00 0.00 0.00 0.00 0.00 0.00 0.00 0.00 0.00 0.00 0.00 0.00 0.00 0.00 0.00 0.00 0.00
0.07 0.07 0.05 0.06 0.05 0.03 0.04 0.06 0.08 0.08 0.09 0.12 0.15 0.16 0.15 0.14 0.13 0.11 0.09 0.06 0.04 0.03 0.02 0.02 0.02 0.01 0.01 0.00 0.00 0.00 0.00 0.00 0.00 0.00 0.00 0.00 0.00 0.00 0.00 0.00 0.00 0.00 0.00
0.05 0.06 0.07 0.08 0.07 0.05 0.04 0.05 0.07 0.10 0.12 0.12 0.12 0.14 0.16 0.17 0.18 0.16 0.13 0.10 0.08 0.05 0.04 0.04 0.03 0.02 0.01 0.01 0.01 0.01 0.01 0.00 0.00 0.00 0.00 0.00 0.00 0.00 0.00 0.00 0.00 0.00 0.00
0.06 0.06 0.06 0.07 0.07 0.08 0.08 0.07 0.07 0.07 0.09 0.10 0.10 0.11 0.14 0.17 0.18 0.19 0.19 0.15 0.12 0.10 0.07 0.05 0.04 0.03 0.02 0.02 0.02 0.02 0.02 0.01 0.01 0.00 0.00 0.00 0.00 0.00 0.00 0.00 0.00 0.00 0.00
0.10 0.09 0.08 0.09 0.09 0.08 0.09 0.08 0.08 0.08 0.08 0.09 0.11 0.14 0.16 0.17 0.17 0.17 0.18 0.19 0.15 0.12 0.10 0.07 0.05 0.04 0.03 0.03 0.03 0.03 0.03 0.02 0.02 0.01 0.01 0.00 0.00 0.00 0.00 0.00 0.00 0.00 0.01
0.11 0.12 0.11 0.11 0.13 0.11 0.09 0.09 0.10 0.10 0.10 0.11 0.12 0.13 0.16 0.20 0.20 0.18 0.17 0.17 0.17 0.15 0.12 0.10 0.08 0.06 0.05 0.04 0.04 0.03 0.03 0.03 0.02 0.02 0.01 0.01 0.01 0.01 0.01 0.01 0.01 0.01 0.01
MSLP
1010.30 1009.97 1009.92 1010.14 1010.54 1011.04 1011.53 1011.94 1012.25 1012.44 1012.56 1012.67 1012.82 1013.04 1013.33 1013.66 1014.01 1014.32 1014.56 1014.72 1014.81 1014.89 1014.98 1015.12 1015.35 1015.65 1015.99 1016.34 1016.66 1016.92 1017.10 1017.22 1017.28 1017.31 1017.34 1017.38 1017.43 1017.48 1017.51 1017.52 1017.50 1017.46 1017.41
1010.30 1009.98 1009.94 1010.16 1010.56 1011.06 1011.57 1012.01 1012.35 1012.57 1012.73 1012.86 1013.03 1013.26 1013.56 1013.91 1014.26 1014.58 1014.84 1015.01 1015.13 1015.21 1015.31 1015.45 1015.65 1015.92 1016.23 1016.55 1016.84 1017.08 1017.26 1017.38 1017.47 1017.54 1017.61 1017.68 1017.75 1017.81 1017.85 1017.85 1017.82 1017.77 1017.72
1010.21 1009.93 1009.90 1010.14 1010.56 1011.08 1011.62 1012.09 1012.47 1012.73 1012.92 1013.07 1013.25 1013.47 1013.76 1014.10 1014.45 1014.78 1015.04 1015.24 1015.38 1015.49 1015.60 1015.74 1015.93 1016.18 1016.46 1016.74 1017.00 1017.23 1017.41 1017.56 1017.67 1017.78 1017.89 1018.00 1018.09 1018.17 1018.21 1018.21 1018.18 1018.12 1018.06
1010.08 1009.84 1009.85 1010.11 1010.56 1011.11 1011.67 1012.18 1012.59 1012.89 1013.09 1013.25 1013.42 1013.63 1013.90 1014.21 1014.55 1014.88 1015.16 1015.39 1015.56 1015.70 1015.84 1016.00 1016.19 1016.42 1016.68 1016.93 1017.18 1017.40 1017.59 1017.75 1017.90 1018.04 1018.17 1018.31 1018.42 1018.51 1018.56 1018.56 1018.52 1018.47 1018.41
1010.00 1009.81 1009.85 1010.13 1010.60 1011.16 1011.74 1012.27 1012.70 1013.00 1013.21 1013.36 1013.51 1013.70 1013.94 1014.24 1014.56 1014.89 1015.20 1015.46 1015.67 1015.86 1016.03 1016.21 1016.42 1016.65 1016.89 1017.14 1017.38 1017.60 1017.79 1017.97 1018.14 1018.30 1018.45 1018.60 1018.72 1018.81 1018.85 1018.85 1018.82 1018.77 1018.72
1010.03 1009.88 1009.95 1010.24 1010.69 1011.25 1011.82 1012.34 1012.75 1013.05 1013.25 1013.39 1013.52 1013.68 1013.91 1014.19 1014.51 1014.85 1015.19 1015.49 1015.75 1015.98 1016.19 1016.41 1016.63 1016.86 1017.11 1017.36 1017.60 1017.82 1018.03 1018.22 1018.39 1018.56 1018.71 1018.85 1018.96 1019.04 1019.07 1019.08 1019.05 1019.01 1018.98
1010.24 1010.10 1010.17 1010.44 1010.86 1011.38 1011.90 1012.38 1012.75 1013.02 1013.20 1013.32 1013.45 1013.61 1013.83 1014.12 1014.45 1014.82 1015.18 1015.52 1015.82 1016.09 1016.34 1016.58 1016.82 1017.08 1017.33 1017.59 1017.83 1018.06 1018.28 1018.47 1018.64 1018.80 1018.94 1019.05 1019.14 1019.19 1019.22 1019.22 1019.20 1019.18 1019.17
1010.63 1010.48 1010.51 1010.73 1011.08 1011.52 1011.97 1012.37 1012.69 1012.92 1013.08 1013.20 1013.33 1013.51 1013.75 1014.06 1014.43 1014.82 1015.21 1015.58 1015.92 1016.22 1016.49 1016.75 1017.01 1017.27 1017.54 1017.81 1018.06 1018.30 1018.51 1018.70 1018.87 1019.01 1019.12 1019.20 1019.26 1019.29 1019.30 1019.29 1019.29 1019.29 1019.30
1011.14 1010.95 1010.92 1011.06 1011.33 1011.66 1012.01 1012.32 1012.58 1012.77 1012.91 1013.05 1013.21 1013.42 1013.71 1014.06 1014.46 1014.89 1015.30 1015.69 1016.05 1016.36 1016.64 1016.91 1017.18 1017.45 1017.72 1018.00 1018.26 1018.50 1018.72 1018.90 1019.05 1019.16 1019.24 1019.30 1019.32 1019.33 1019.33 1019.33 1019.33 1019.34 1019.38
1011.67 1011.44 1011.34 1011.39 1011.55 1011.77 1012.01 1012.23 1012.42 1012.59 1012.73 1012.89 1013.10 1013.37 1013.71 1014.11 1014.54 1014.99 1015.43 1015.83 1016.18 1016.50 1016.78 1017.05 1017.32 1017.59 1017.87 1018.15 1018.41 1018.65 1018.86 1019.03 1019.17 1019.26 1019.31 1019.34 1019.35 1019.35 1019.34 1019.34 1019.35 1019.38 1019.43
1012.13 1011.85 1011.69 1011.65 1011.70 1011.81 1011.95 1012.10 1012.24 1012.39 1012.55 1012.75 1013.01 1013.33 1013.73 1014.17 1014.63 1015.10 1015.54 1015.93 1016.29 1016.60 1016.88 1017.15 1017.42 1017.69 1017.97 1018.25 1018.51 1018.74 1018.94 1019.10 1019.21 1019.29 1019.33 1019.35 1019.35 1019.35 1019.35 1019.35 1019.37 1019.41 1019.45
1012.43 1012.12 1011.90 1011.79 1011.75 1011.77 1011.83 1011.92 1012.03 1012.17 1012.36 1012.60 1012.91 1013.29 1013.72 1014.19 1014.67 1015.14 1015.58 1015.97 1016.32 1016.63 1016.92 1017.20 1017.48 1017.76 1018.04 1018.31 1018.56 1018.78 1018.96 1019.09 1019.19 1019.25 1019.29 1019.30 1019.32 1019.33 1019.34 1019.37 1019.39 1019.42 1019.45
1012.52 1012.21 1011.96 1011.79 1011.69 1011.64 1011.65 1011.69 1011.79 1011.94 1012.15 1012.44 1012.79 1013.20 1013.65 1014.13 1014.61 1015.08 1015.51 1015.90 1016.26 1016.59 1016.90 1017.20 1017.50 1017.79 1018.07 1018.34 1018.57 1018.77 1018.92 1019.03 1019.10 1019.15 1019.19 1019.22 1019.25 1019.29 1019.33 1019.37 1019.40 1019.42 1019.43
1012.42 1012.12 1011.87 1011.67 1011.53 1011.44 1011.41 1011.43 1011.53 1011.69 1011.93 1012.24 1012.61 1013.03 1013.49 1013.96 1014.43 1014.88 1015.31 1015.71 1016.09 1016.46 1016.81 1017.16 1017.49 1017.81 1018.10 1018.35 1018.56 1018.73 1018.84 1018.92 1018.97 1019.01 1019.05 1019.09 1019.15 1019.21 1019.28 1019.34 1019.38 1019.39 1019.37
1012.17 1011.89 1011.65 1011.44 1011.28 1011.17 1011.12 1011.14 1011.24 1011.42 1011.68 1012.00 1012.38 1012.80 1013.24 1013.69 1014.13 1014.57 1015.01 1015.43 1015.85 1016.27 1016.69 1017.09 1017.48 1017.82 1018.12 1018.37 1018.55 1018.67 1018.74 1018.78 1018.80 1018.83 1018.87 1018.93 1019.01 1019.11 1019.20 1019.28 1019.33 1019.34 1019.30
1011.82 1011.58 1011.36 1011.15 1010.99 1010.87 1010.81 1010.84 1010.95 1011.14 1011.41 1011.73 1012.10 1012.50 1012.92 1013.33 1013.76 1014.19 1014.64 1015.10 1015.58 1016.06 1016.55 1017.02 1017.46 1017.84 1018.15 1018.37 1018.52 1018.61 1018.63 1018.63 1018.62 1018.63 1018.67 1018.74 1018.84 1018.97 1019.09 1019.19 1019.25 1019.26 1019.21
1011.41 1011.22 1011.02 1010.83 1010.67 1010.55 1010.51 1010.54 1010.67 1010.87 1011.14 1011.47 1011.82 1012.20 1012.58 1012.97 1013.38 1013.81 1014.27 1014.77 1015.31 1015.86 1016.42 1016.95 1017.43 1017.84 1018.15 1018.36 1018.48 1018.52 1018.51 1018.48 1018.44 1018.44 1018.47 1018.55 1018.66 1018.80 1018.94 1019.07 1019.14 1019.17 1019.13
1010.98 1010.83 1010.66 1010.48 1010.33 1010.23 1010.20 1010.26 1010.40 1010.62 1010.90 1011.22 1011.57 1011.92 1012.27 1012.64 1013.04 1013.47 1013.95 1014.49 1015.07 1015.67 1016.28 1016.86 1017.37 1017.79 1018.10 1018.30 1018.39 1018.41 1018.37 1018.32 1018.27 1018.25 1018.29 1018.37 1018.49 1018.64 1018.80 1018.93 1019.03 1019.08 1019.08
1010.50 1010.39 1010.25 1010.10 1009.98 1009.90 1009.90 1009.98 1010.15 1010.39 1010.68 1011.01 1011.34 1011.68 1012.02 1012.38 1012.77 1013.20 1013.69 1014.25 1014.85 1015.49 1016.12 1016.71 1017.23 1017.65 1017.96 1018.14 1018.23 1018.24 1018.20 1018.14 1018.10 1018.09 1018.13 1018.21 1018.34 1018.49 1018.65 1018.80 1018.92 1019.00 1019.04
1009.93 1009.86 1009.77 1009.66 1009.58 1009.54 1009.58 1009.71 1009.91 1010.17 1010.49 1010.82 1011.15 1011.49 1011.82 1012.17 1012.55 1012.98 1013.47 1014.03 1014.64 1015.27 1015.89 1016.48 1016.98 1017.39 1017.69 1017.87 1017.97 1017.99 1017.98 1017.95 1017.93 1017.94 1017.99 1018.08 1018.21 1018.35 1018.51 1018.67 1018.81 1018.92 1019.00
1009.26 1009.24 1009.19 1009.14 1009.12 1009.14 1009.24 1009.41 1009.65 1009.95 1010.28 1010.62 1010.96 1011.29 1011.62 1011.97 1012.34 1012.76 1013.24 1013.78 1014.36 1014.96 1015.55 1016.10 1016.58 1016.97 1017.26 1017.46 1017.59 1017.66 1017.69 1017.72 1017.75 1017.80 1017.87 1017.97 1018.09 1018.22 1018.37 1018.53 1018.68 1018.82 1018.94
1008.49 1008.50 1008.52 1008.54 1008.59 1008.69 1008.85 1009.08 1009.36 1009.68 1010.03 1010.38 1010.72 1011.05 1011.38 1011.71 1012.07 1012.48 1012.93 1013.44 1013.97 1014.53 1015.07 1015.57 1016.02 1016.39 1016.69 1016.92 1017.10 1017.23 1017.34 1017.44 1017.53 1017.63 1017.73 1017.83 1017.95 1018.07 1018.20 1018.35 1018.51 1018.67 1018.82
1007.64 1007.71 1007.79 1007.89 1008.03 1008.21 1008.44 1008.71 1009.03 1009.37 1009.72 1010.06 1010.39 1010.71 1011.03 1011.35 1011.69 1012.07 1012.50 1012.96 1013.45 1013.94 1014.43 1014.89 1015.31 1015.68 1015.99 1016.27 1016.51 1016.72 1016.92 1017.09 1017.26 1017.40 1017.53 1017.65 1017.76 1017.86 1017.98 1018.11 1018.26 1018.44 1018.62
1006.84 1006.95 1007.09 1007.28 1007.49 1007.75 1008.03 1008.34 1008.67 1009.01 1009.34 1009.66 1009.97 1010.26 1010.55 1010.85 1011.17 1011.53 1011.92 1012.34 1012.78 1013.23 1013.67 1014.09 1014.49 1014.86 1015.21 1015.54 1015.85 1016.14 1016.42 1016.68 1016.90 1017.09 1017.25 1017.37 1017.47 1017.56 1017.66 1017.78 1017.93 1018.11 1018.31
1006.21 1006.33 1006.53 1006.78 1007.06 1007.37 1007.69 1008.01 1008.34 1008.65 1008.94 1009.21 1009.47 1009.73 1009.98 1010.25 1010.55 1010.87 1011.23 1011.61 1012.01 1012.43 1012.84 1013.24 1013.64 1014.03 1014.41 1014.78 1015.16 1015.52 1015.86 1016.18 1016.45 1016.67 1016.84 1016.96 1017.06 1017.14 1017.23 1017.35 1017.50 1017.69 1017.91
1005.87 1006.00 1006.22 1006.51 1006.82 1007.15 1007.48 1007.79 1008.08 1008.34 1008.57 1008.78 1008.98 1009.18 1009.39 1009.62 1009.88 1010.18 1010.50 1010.86 1011.24 1011.62 1012.02 1012.42 1012.82 1013.22 1013.64 1014.05 1014.47 1014.88 1015.26 1015.60 1015.89 1016.12 1016.29 1016.42 1016.51 1016.59 1016.68 1016.81 1016.98 1017.19 1017.43
Thickness
5762 5766 5768 5766 5764 5762 5761 5761 5760 5760 5759 5759 5758 5757 5755 5754 5752 5751 5750 5749 5748 5747 5746 5744 5742 5741 5739 5738 5736 5735 5734 5734 5733 5732 5731 5731 5730 5729 5728 5728 5727 5726 5726
5761 5762 5762 5762 5760 5758 5757 5756 5756 5755 5755 5754 5754 5753 5752 5750 5749 5748 5747 5746 5745 5744 5743 5742 5740 5738 5737 5735 5733 5732 5731 5730 5729 5728 5728 5727 5727 5726 5725 5725 5724 5723 5723
5756 5757 5757 5756 5755 5754 5752 5751 5751 5751 5750 5750 5749 5749 5748 5747 5746 5745 5744 5743 5742 5741 5740 5739 5737 5735 5734 5732 5731 5729 5728 5727 5726 5725 5725 5724 5724 5723 5722 5722 5721 5720 5719
5751 5751 5751 5751 5750 5749 5748 5747 5746 5746 5746 5745 5745 5744 5744 5743 5742 5741 5740 5740 5739 5738 5737 5735 5733 5732 5730 5729 5728 5726 5725 5724 5723 5722 5721 5721 5721 5720 5719 5719 5718 5717 5716
5743 5745 5746 5745 5744 5743 5743 5742 5741 5741 5741 5741 5740 5740 5740 5739 5738 5738 5737 5736 5735 5734 5733 5731 5730 5728 5727 5726 5725 5723 5722 5721 5720 5719 5718 5718 5718 5717 5716 5715 5714 5713 5712
5734 5737 5738 5739 5738 5738 5737 5737 5736 5736 5736 5736 5736 5736 5736 5735 5734 5734 5733 5732 5731 5730 5729 5727 5726 5724 5723 5723 5722 5720 5719 5717 5716 5716 5715 5715 5714 5714 5713 5712 5711 5710 5709
5725 5727 5730 5731 5731 5731 5732 5731 5731 5731 5731 5732 5732 5731 5731 5731 5730 5729 5728 5727 5727 5726 5725 5723 5722 5721 5720 5719 5718 5717 5716 5714 5713 5712 5712 5711 5711 5710 5709 5708 5707 5706 5705
5715 5718 5721 5723 5724 5725 5725 5725 5725 5726 5726 5726 5727 5727 5727 5727 5726 5725 5724 5723 5722 5721 5720 5719 5718 5717 5716 5715 5715 5713 5712 5711 5710 5709 5708 5708 5707 5707 5706 5705 5704 5703 5702
5706 5709 5712 5715 5717 5718 5719 5719 5720 5720 5721 5721 5722 5722 5722 5722 5721 5720 5719 5718 5717 5716 5716 5715 5714 5713 5712 5711 5711 5710 5708 5708 5707 5706 5705 5704 5704 5703 5702 5701 5700 5699 5698
5695 5699 5703 5707 5708 5710 5712 5713 5714 5714 5715 5715 5716 5716 5716 5716 5716 5715 5715 5714 5713 5712 5711 5710 5710 5708 5708 5707 5706 5706 5705 5704 5703 5702 5701 5701 5700 5700 5699 5697 5696 5695 5694
5682 5687 5693 5698 5701 5703 5705 5706 5707 5708 5709 5709 5710 5710 5711 5711 5710 5710 5709 5709 5708 5707 5706 5706 5705 5704 5703 5703 5702 5702 5701 5700 5699 5698 5698 5697 5697 5696 5695 5694 5693 5692 5691
5667 5675 5682 5687 5692 5695 5698 5700 5701 5702 5702 5703 5704 5705 5705 5705 5705 5704 5704 5703 5703 5702 5701 5700 5700 5699 5698 5698 5697 5697 5697 5696 5695 5695 5694 5694 5693 5692 5691 5690 5689 5688 5687
5656 5664 5671 5678 5683 5687 5690 5693 5695 5695 5696 5697 5698 5699 5699 5699 5699 5698 5698 5697 5697 5696 5696 5695 5694 5694 5693 5693 5693 5692 5692 5692 5691 5691 5690 5690 5689 5688 5687 5686 5685 5684 5683
5645 5653 5661 5669 5674 5679 5682 5685 5688 5690 5691 5691 5692 5692 5693 5693 5693 5693 5692 5692 5692 5691 5690 5690 5689 5689 5688 5688 5688 5688 5688 5687 5687 5687 5687 5686 5685 5684 5683 5682 5681 5680 5679
5636 5644 5651 5658 5665 5669 5673 5677 5681 5684 5685 5686 5686 5687 5687 5688 5688 5687 5687 5687 5687 5686 5685 5685 5684 5684 5683 5683 5683 5683 5683 5683 5683 5682 5682 5682 5681 5680 5679 5678 5677 5676 5675
5627 5635 5642 5648 5655 5661 5664 5669 5673 5677 5679 5680 5681 5681 5681 5682 5682 5682 5682 5681 5681 5681 5680 5680 5679 5678 5678 5678 5678 5679 5679 5678 5678 5678 5678 5678 5677 5676 5675 5674 5673 5672 5671
5619 5626 5633 5639 5645 5651 5656 5660 5665 5668 5671 5673 5675 5675 5676 5676 5677 5677 5676 5676 5676 5675 5674 5673 5673 5672 5672 5672 5673 5673 5674 5674 5674 5674 5674 5673 5673 5672 5671 5669 5668 5667 5666
5610 5616 5624 5630 5636 5641 5646 5651 5655 5659 5663 5666 5668 5669 5670 5671 5671 5670 5671 5671 5671 5669 5668 5668 5667 5666 5666 5666 5667 5668 5668 5668 5669 5669 5669 5668 5668 5667 5666 5665 5663 5662 5661
5600 5606 5612 5619 5625 5632 5636 5641 5646 5650 5654 5658 5660 5663 5664 5665 5665 5665 5665 5665 5664 5663 5662 5662 5661 5661 5660 5660 5660 5661 5662 5662 5663 5663 5663 5663 5663 5662 5661 5660 5658 5657 5656
5590 5596 5602 5608 5614 5620 5625 5630 5635 5640 5645 5650 5654 5657 5658 5659 5660 5660 5659 5659 5658 5657 5657 5657 5656 5655 5655 5654 5654 5654 5655 5656 5657 5657 5658 5658 5658 5657 5656 5654 5653 5651 5650
5580 5585 5591 5597 5604 5609 5614 5619 5625 5631 5637 5642 5647 5650 5652 5654 5654 5655 5655 5654 5653 5653 5653 5653 5650 5648 5647 5646 5644 5644 5646 5648 5650 5651 5652 5652 5652 5651 5650 5648 5647 5645 5643
5571 5576 5582 5588 5595 5601 5606 5611 5618 5623 5629 5634 5638 5642 5645 5648 5649 5650 5650 5650 5649 5648 5647 5646 5645 5643 5642 5641 5640 5636 5635 5638 5642 5645 5645 5645 5645 5644 5643 5642 5640 5638 5637
5562 5567 5574 5580 5586 5592 5597 5601 5607 5611 5617 5623 5628 5634 5639 5642 5644 5645 5646 5646 5645 5644 5644 5644 5642 5640 5638 5636 5637 5635 5631 5631 5633 5635 5637 5637 5637 5636 5635 5634 5633 5631 5630
5554 5559 5564 5570 5576 5582 5587 5593 5599 5605 5611 5618 5624 5627 5632 5635 5638 5639 5639 5640 5640 5640 5639 5639 5639 5638 5635 5632 5630 5631 5632 5632 5627 5626 5627 5628 5628 5628 5628 5627 5626 5625 5623
5546 5550 5555 5561 5568 5573 5579 5586 5592 5599 5605 5609 5614 5619 5624 5628 5631 5634 5635 5635 5635 5636 5635 5634 5633 5633 5632 5630 5627 5625 5623 5623 5623 5620 5619 5619 5619 5620 5620 5620 5618 5617 5616
5540 5544 5549 5555 5561 5566 5572 5578 5585 5592 5597 5602 5607 5612 5616 5620 5624 5628 5630 5630 5630 5631 5631 5630 5629 5628 5627 5626 5624 5622 5621 5619 5618 5616 5614 5613 5613 5613 5612 5612 5611 5609 5608